Location: Hiram
(41.3130°N, 81.1440°W)
Time: 13:30:09
(UTC-04:00)

Iridium 62 - Visible Passes

Search period start: 02 September 2014 00:00
Search period end: 12 September 2014 00:00
Orbit: 776 x 779 km, 86.4° (Epoch: 02 September)

Date Brightness Start Highest point End Pass type
(mag) Time Alt. Az. Time Alt. Az. Time Alt. Az.
02 Sep 7.7 20:28:14 10° E 20:29:18 11° ENE 20:30:22 10° ENE visible
02 Sep 5.8 22:07:11 39° S 22:09:11 85° W 22:14:25 10° N visible
03 Sep 5.9 21:33:17 29° SSE 21:35:43 52° E 21:40:46 10° NNE visible
03 Sep 8.2 23:13:43 12° WSW 23:16:46 18° WNW 23:20:18 10° NNW visible
04 Sep 6.7 20:59:18 16° SE 21:02:22 28° E 21:06:46 10° NNE visible
04 Sep 7.4 22:39:44 17° SW 22:42:58 32° W 22:47:38 10° NNW visible
05 Sep 7.4 20:26:07 10° ESE 20:29:09 16° ENE 20:32:11 10° NE visible
05 Sep 6.3 22:05:40 19° SSW 22:09:18 59° W 22:14:27 10° N visible
06 Sep 5.7 21:31:29 15° S 21:35:45 76° E 21:40:58 10° N visible
06 Sep 8.6 23:14:55 10° W 23:17:06 13° WNW 23:19:16 10° NW visible
07 Sep 6.2 20:57:31 10° SSE 21:02:20 41° E 21:07:11 10° NNE visible
07 Sep 8.0 22:39:09 10° SW 22:43:12 23° WNW 22:47:17 10° NNW visible
08 Sep 7.0 20:25:04 10° SE 20:29:02 23° E 20:33:01 10° NNE visible
08 Sep 7.0 22:04:35 10° SSW 22:09:27 41° W 22:14:22 10° NNW visible
09 Sep 5.9 21:30:39 10° S 21:35:50 76° W 21:41:04 10° N visible
10 Sep 5.8 20:57:15 10° SSE 21:02:21 59° E 21:07:28 10° N visible
10 Sep 8.5 22:40:21 10° WSW 22:43:29 16° WNW 22:46:39 10° NW visible
11 Sep 6.5 20:24:25 10° SE 20:28:58 32° E 20:33:33 10° NNE visible
11 Sep 7.7 22:05:12 10° SW 22:09:39 29° W 22:14:09 10° NNW visible
